Weather History for KLLJ - January, 2013

Change the Weather History Date:

Thursday, January 10, 2013

  Actual Average Record
Temperature  
Mean Temperature 29 °F 18 °F  
Max Temperature 36 °F 29 °F 53 °F (1990)
Min Temperature 21 °F 8 °F -21 °F (1949)
Degree Days  
Heating Degree Days 36 47  
Month to date heating degree days 516 473  
Since 1 July heating degree days 3582 3969  
Cooling Degree Days 0 0  
Month to date cooling degree days 0 0  
Year to date cooling degree days 0 0  
Moisture  
Dew Point 25 °F    
Average Humidity 76    
Maximum Humidity 92    
Minimum Humidity 59    
Precipitation  
Precipitation 0.17 in 0.02 in 0.50 in (1925)
Month to date precipitation 0.20 0.20  
Year to date precipitation 0.20 0.20  
Sea Level Pressure  
Sea Level Pressure 29.55 in    
Wind  
Wind Speed 7 mph (North)    
Max Wind Speed 17 mph    
Max Gust Speed 20 mph    
Visibility 5 miles    
Events Fog , Snow    
T = Trace of Precipitation, MM = Missing Value Source: NWS Daily Summary

Daily Weather History Graph

Daily Weather History Graph

Search for Another Location

Airport or City:

Trip Planner

Search our weather history database for the weather conditions in past years. The results will help you decide how hot, cold, wet, or windy it might be!

Date:

Astronomy

Jan. 10, 2013 Rise Set
Actual Time 8:12 AM MST 5:17 PM MST
Civil Twilight 7:39 AM MST 5:50 PM MST
Nautical Twilight 7:02 AM MST 6:26 PM MST
Astronomical Twilight 6:27 AM MST 7:01 PM MST
Moon 6:55 AM MST (1/10) 4:30 PM MST (1/10)
Length of Visible Light 10h 10m
Length of Day
9h 05m
Waning Crescent, 2% of the Moon is Illuminated
Jan 10
Waning Crescent
Jan 11
New
Jan 18
First Quarter
Jan 26
Full
Feb 3
Last Quarter

Hourly Weather History & Observations

Time (MST) Temp. Windchill Dew Point Humidity Pressure Visibility Wind Dir Wind Speed Gust Speed Precip Events Conditions
12:25 AM 33.8 °F 29.6 °F 26.6 °F 75% 29.64 in 5.0 mi South 4.6 mph - 0.00 in Snow Light Snow
12:43 AM 33.8 °F 28.6 °F 26.6 °F 75% 29.63 in 1.8 mi SSE 5.8 mph - 0.00 in Snow Light Snow
12:55 AM 32.0 °F 26.4 °F 28.0 °F 85% 29.65 in 1.5 mi SSE 5.8 mph - 0.01 in Snow Light Snow
1:10 AM 30.2 °F 26.7 °F 28.4 °F 93% 29.61 in 1.5 mi WSW 3.5 mph - 0.00 in Snow Light Snow
1:16 AM 30.2 °F 26.7 °F 28.4 °F 93% 29.61 in 2.0 mi WSW 3.5 mph - 0.01 in Snow Light Snow
1:25 AM 30.2 °F - 28.4 °F 93% 29.60 in 1.5 mi Calm Calm - 0.01 in Snow Light Snow
1:43 AM 32.0 °F - 28.4 °F 87% 29.60 in 1.2 mi Calm Calm - 0.02 in Snow Light Snow
1:52 AM 32.0 °F 28.7 °F 28.4 °F 87% 29.60 in 1.2 mi SE 3.5 mph - 0.03 in Snow Light Snow
1:55 AM 30.9 °F 27.5 °F 28.9 °F 92% 29.62 in 1.2 mi SE 3.5 mph - 0.03 in Snow Light Snow
2:04 AM 30.2 °F 24.3 °F 28.4 °F 93% 29.59 in 1.0 mi SSE 5.8 mph - 0.00 in Snow Light Snow
2:36 AM 32.0 °F 25.6 °F 28.4 °F 87% 29.59 in 2.5 mi SSE 6.9 mph - 0.02 in Snow Light Snow
2:39 AM 32.0 °F 24.8 °F 28.4 °F 87% 29.59 in 3.0 mi SSE 8.1 mph - 0.02 in Snow Light Snow
2:43 AM 32.0 °F 25.6 °F 28.4 °F 87% 29.59 in 3.0 mi SSE 6.9 mph - 0.03 in Snow Light Snow
2:55 AM 32.0 °F 27.5 °F 28.9 °F 88% 29.59 in 5.0 mi South 4.6 mph - 0.03 in Snow Light Snow
3:55 AM 30.9 °F 24.3 °F 28.0 °F 89% 29.55 in 10.0 mi NNW 6.9 mph - 0.00 in   Overcast
4:55 AM 30.9 °F 26.2 °F 28.0 °F 89% 29.54 in 2.5 mi NNW 4.6 mph - 0.00 in Snow Light Snow
5:07 AM 30.2 °F 26.7 °F 28.4 °F 93% 29.51 in 4.0 mi NNW 3.5 mph - 0.00 in Snow Light Snow
5:22 AM 30.2 °F 25.4 °F 28.4 °F 93% 29.50 in 2.0 mi NNW 4.6 mph - 0.00 in Snow Light Snow
5:33 AM 30.2 °F 26.7 °F 28.4 °F 93% 29.51 in 3.0 mi NW 3.5 mph - 0.00 in Snow Light Snow
5:37 AM 30.2 °F 26.7 °F 28.4 °F 93% 29.50 in 2.5 mi NW 3.5 mph - 0.00 in Snow Light Snow
5:47 AM 30.2 °F 26.7 °F 28.4 °F 93% 29.49 in 1.2 mi NNE 3.5 mph - 0.01 in Snow Light Snow
5:55 AM 30.9 °F - 28.9 °F 92% 29.52 in 1.2 mi Calm Calm - 0.01 in Snow Light Snow
6:03 AM 30.2 °F - 28.4 °F 93% 29.49 in 1.2 mi Calm Calm - 0.00 in Snow Light Snow
6:20 AM 30.2 °F - 28.4 °F 93% 29.49 in 3.0 mi Calm Calm - 0.01 in Snow Light Snow
6:50 AM 30.2 °F - 28.4 °F 93% 29.49 in 1.8 mi Calm Calm - 0.01 in Snow Light Snow
6:55 AM 30.9 °F - 28.9 °F 92% 29.53 in 1.2 mi Calm Calm - 0.02 in Snow Light Snow
7:01 AM 30.2 °F - 28.4 °F 93% 29.50 in 0.8 mi Calm Calm - 0.00 in Snow Light Snow
7:07 AM 30.2 °F - 28.4 °F 93% 29.49 in 1.0 mi Calm Calm - 0.01 in Snow Light Snow
7:31 AM 30.2 °F 25.4 °F 28.4 °F 93% 29.48 in 4.0 mi North 4.6 mph - 0.02 in Snow Light Snow
7:55 AM 30.0 °F 26.5 °F 28.0 °F 92% 29.50 in 10.0 mi NNW 3.5 mph - 0.02 in   Overcast
8:02 AM 30.2 °F 25.4 °F 28.4 °F 93% 29.48 in 10.0 mi NNW 4.6 mph - N/A   Overcast
8:25 AM 30.2 °F 25.4 °F 28.4 °F 93% 29.47 in 9.0 mi North 4.6 mph - 0.00 in Snow Light Snow
8:55 AM 30.0 °F 23.2 °F 28.0 °F 92% 29.49 in 6.0 mi North 6.9 mph - 0.00 in Snow Light Snow
9:25 AM 30.2 °F 21.3 °F 26.6 °F 86% 29.48 in 10.0 mi North 10.4 mph - 0.00 in   Overcast
9:47 AM 30.2 °F 20.2 °F 24.8 °F 80% 29.48 in 10.0 mi NNW 12.7 mph - 0.00 in   Overcast
9:55 AM 30.0 °F 21.1 °F 25.0 °F 82% 29.51 in 10.0 mi North 10.4 mph - 0.00 in   Overcast
10:38 AM 28.4 °F 21.2 °F 24.8 °F 86% 29.50 in 2.0 mi NNW 6.9 mph - 0.01 in Snow Light Snow
10:46 AM 28.4 °F 21.2 °F 24.8 °F 86% 29.50 in 1.2 mi North 6.9 mph - 0.01 in Snow Light Snow
10:55 AM 28.0 °F 20.8 °F 23.0 °F 81% 29.53 in 0.8 mi NNE 6.9 mph - 0.01 in Snow Light Snow
11:34 AM 26.6 °F 16.8 °F 24.8 °F 93% 29.50 in 0.2 mi NNE 10.4 mph - 0.02 in Fog , Snow Snow
11:41 AM 26.6 °F 17.5 °F 24.8 °F 93% 29.50 in 0.2 mi NNE 9.2 mph - 0.03 in Fog , Snow Snow
11:47 AM 26.6 °F 17.5 °F 24.8 °F 93% 29.50 in 0.5 mi NNE 9.2 mph - 0.04 in Fog , Snow Light Snow
11:55 AM 27.0 °F 17.3 °F 24.1 °F 89% 29.53 in 1.2 mi NNE 10.4 mph - 0.04 in Snow Light Snow
12:04 PM 26.6 °F 16.8 °F 24.8 °F 93% 29.49 in 3.0 mi NE 10.4 mph - 0.00 in Snow Light Snow
12:16 PM 28.4 °F 19.7 °F 24.8 °F 86% 29.49 in 3.0 mi NE 9.2 mph - 0.00 in Snow Light Snow
12:55 PM 28.0 °F 24.2 °F 24.1 °F 85% 29.53 in 10.0 mi NW 3.5 mph - 0.00 in   Overcast
1:55 PM 28.0 °F 21.7 °F 23.0 °F 81% 29.53 in 9.0 mi North 5.8 mph - 0.00 in Snow Light Snow
2:55 PM 28.0 °F 22.8 °F 21.9 °F 78% 29.53 in 10.0 mi North 4.6 mph - 0.00 in   Overcast
3:55 PM 27.0 °F 20.5 °F 18.0 °F 69% 29.55 in 10.0 mi North 5.8 mph - N/A   Overcast
5:55 PM 24.1 °F 15.2 °F 12.9 °F 62% 29.59 in 10.0 mi North 8.1 mph - N/A   Overcast
6:55 PM 23.0 °F 13.1 °F 12.0 °F 63% 29.62 in 10.0 mi NNW 9.2 mph - N/A   Overcast
7:55 PM 23.0 °F 11.1 °F 10.0 °F 58% 29.62 in 10.0 mi NNW 12.7 mph - N/A   Overcast
8:55 PM 21.9 °F 11.7 °F 10.0 °F 60% 29.62 in 10.0 mi NNW 9.2 mph - N/A   Overcast
9:55 PM 21.9 °F 9.8 °F 10.0 °F 60% 29.64 in 10.0 mi NW 12.7 mph - N/A   Overcast
10:55 PM 21.0 °F 11.4 °F 10.0 °F 63% 29.64 in 10.0 mi NW 8.1 mph - N/A   Overcast
11:55 PM 21.0 °F 13.4 °F 10.0 °F 63% 29.65 in 10.0 mi NNW 5.8 mph - N/A   Overcast